Location: Pensacola
(30.4142°N, 87.2155°W)
Time: 08:03:09
(UTC-06:00)

OTV 5 (USA 277) - Visible Passes

Search period start: 21 November 2017 00:00
Search period end: 01 December 2017 00:00
Orbit: 404 x 417 km, 43.0° (Epoch: 07 September)

Date Brightness Start Highest point End Pass type
(mag) Time Alt. Az. Time Alt. Az. Time Alt. Az.
21 Nov ? 04:44:28 37° NNE 04:44:38 38° NNE 04:47:43 10° E visible
22 Nov ? 03:56:03 11° E 03:56:03 11° E 03:56:17 10° E visible
22 Nov ? 05:28:50 18° W 05:30:50 38° SW 05:33:54 10° SSE visible
23 Nov ? 04:40:29 51° SSE 04:40:29 51° SSE 04:43:05 10° SE visible
24 Nov ? 05:25:00 12° WSW 05:25:46 12° SW 05:27:12 10° SSW visible
25 Nov ? 04:36:45 14° S 04:36:45 14° S 04:37:24 10° S visible
28 Nov ? 18:35:36 10° SW 18:37:30 28° SSW 18:37:30 28° SSW visible
29 Nov ? 17:45:00 10° SSW 17:47:51 26° SE 17:49:09 20° ESE visible
30 Nov ? 18:30:38 10° WSW 18:33:31 50° WNW 18:33:31 50° WNW visible
